Regional Weather Roundup
Issued by NWS

Home | Current Version | Previous Version | Text Only | Print | Product List | Glossary Off
Versions: 1 2 3 4 5 6 7 8 9 10 11 12 13 14 15 16 17 18 19 20 21 22 23 24 25 26 27 28 29 30 31 32 33 34 35 36 37 38 39 40 41 42 43 44 45 46 47 48 49 50

988
ASUS43 KMKX 221610
RWRWI

WISCONSIN REGIONAL WEATHER ROUNDUP
NATIONAL WEATHER SERVICE MILWAUKEE/SULLIVAN WI
1100 AM CDT SUN APR 22 2018

NOTE: "FAIR" INDICATES FEW OR NO CLOUDS BELOW 12,000 FEET WITH NO
SIGNIFICANT WEATHER AND/OR OBSTRUCTIONS TO VISIBILITY.

WIZ001-002-006>008-014>016-023>028-221700-
NORTHWEST WISCONSIN

CITY           SKY/WX    TMP DP  RH WIND       PRES   REMARKS
SUPERIOR ARPT  FAIR      48  28  46 CALM      30.37S
ASHLAND        FAIR      56  16  20 W5        30.37F
HAYWARD        FAIR      55  26  32 S6        30.36F
SIREN          FAIR      56  28  34 SW6       30.36F
CUMBERLAND     FAIR      45  28  53 CALM      30.37F
RICE LAKE      FAIR      52  28  39 SW3       30.38F
CHETEK         FAIR      53  27  36 E3        30.38S
LADYSMITH      FAIR      55  30  37 CALM      30.39F
EAU CLAIRE     FAIR      57  34  41 NE6       30.37F
MENOMONIE      FAIR      54  34  47 CALM      30.38F
NEW RICHMOND   FAIR      55  31  38 S5        30.37F
OSCEOLA        FAIR      55  31  40 S3        30.40S
$$

WIZ003>005-009-010-017-018-221700-
NORTH CENTRAL WISCONSIN

CITY           SKY/WX    TMP DP  RH WIND       PRES   REMARKS
MANITOWISH WTR FAIR      52  21  30 SW6       30.37F
ARBOR VITAE    FAIR      55  21  27 CALM      30.37F
WOODRUFF       FAIR      55  21  27 CALM      30.37F
RHINELANDER    FAIR      52  23  32 W7        30.38F
EAGLE RIVER    FAIR      52  17  24 CALM      30.37F
LAND O LAKES   FAIR      56   9  15 SW5       30.39S
PHILLIPS       FAIR      54  28  35 E3        30.37F
TOMAHAWK       FAIR      55  24  29 CALM      30.38F
MEDFORD        FAIR      50  33  51 S5        30.38S
MERRILL          N/A     54  31  42 CALM      30.39S
$$

WIZ029-030-035-036-043>047-221700-
CENTRAL WISCONSIN

CITY           SKY/WX    TMP DP  RH WIND       PRES   REMARKS
WAUSAU         FAIR      54  28  36 SW5       30.37S
MOSINEE        MOSUNNY   54  28  37 CALM      30.40R
MARSHFIELD     FAIR      51  30  44 SE6       30.38R
STEVENS POINT  FAIR      49  28  43 SE7       30.41R
WAUPACA        FAIR      53  30  41 CALM      30.41S
WAUTOMA        FAIR      53  22  29 VRB6      30.40S
WISC RAPIDS    FAIR      53  25  33 SE10      30.40R
CAMP DOUGLAS   MOSUNNY   54  32  43 S7        30.38F
$$

WIZ011>013-019>022-031-037>040-048>050-221700-
NORTHEAST WISCONSIN

CITY           SKY/WX    TMP DP  RH WIND       PRES   REMARKS
ANTIGO         FAIR      53  28  37 CALM      30.39S
SHAWANO        FAIR      51  32  47 E5        30.40S
OCONTO         FAIR      52  26  36 S6        30.41S
STURGEON BAY   FAIR      54  19  25 S8        30.42S
GREEN BAY      FAIR      51  28  41 S6        30.41S
MANITOWOC      FAIR      50  20  30 E6        30.42S
APPLETON       MOSUNNY   54  18  24 SE8       30.39S
CLINTONVILLE   FAIR      50  28  43 S5        30.41S
OSHKOSH        FAIR      52  28  39 NE6       30.40S
$$

WIZ032>034-041-042-053>061-221700-
SOUTHWEST WISCONSIN

CITY           SKY/WX    TMP DP  RH WIND       PRES   REMARKS
LA CROSSE      FAIR      57  34  41 VRB3      30.37F
SPARTA         FAIR      57  27  31 E8        30.38F
VIROQUA        FAIR      51  34  52 E7        30.36F
BOSCOBEL       FAIR      59  28  30 NE10      30.35F
PRAIRIE DU CHI FAIR      57  21  24 E12G20    30.33F
PLATTEVILLE    FAIR      54  29  37 E13       30.34F
$$

WIZ056-057-062-063-064-067-068-221700-
SOUTH CENTRAL WISCONSIN

CITY           SKY/WX    TMP DP  RH WIND       PRES   REMARKS
REEDSBURG      FAIR      53  24  32 E7        30.37F
BARABOO/DELLS  FAIR      52  23  32 E8        30.38F
LONE ROCK      FAIR      57  27  31 E8        30.36F
MINERAL POINT  FAIR      55  16  21 E9G16     30.34F
MADISON        PTSUNNY   53  21  28 E9        30.37F
MIDDLETON      FAIR      57  18  22 SE7       30.38S
WATERTOWN      FAIR      51  24  34 E5        30.38S
MONROE         FAIR      55  27  33 E12       30.34F
JANESVILLE     PTSUNNY   61  25  25 E9        30.36F
$$

WIZ051-052-058>065-066-070>072-221700-
SOUTHEAST WISCONSIN

CITY           SKY/WX    TMP DP  RH WIND       PRES   REMARKS
MILWAUKEE      PTSUNNY   47  23  38 NE7       30.41S
WAUKESHA       SUNNY     50  21  32 E7        30.40F
MILWAUKEE/TIMM SUNNY     50  12  22 E5        30.41F
RACINE         FAIR      49  28  44 NE8       30.41S
BURLINGTON     FAIR      56  27  32 E8        30.38S
KENOSHA        FAIR      52  28  39 E7        30.39S
FOND DU LAC    FAIR      52  20  28 SE5       30.39F
SHEBOYGAN      FAIR      53  25  33 E9        30.40F
WEST BEND      FAIR      54  19  26 SE7       30.39F
JUNEAU         FAIR      50  23  35 CALM      30.40S
$$

LSZ147-162-221700-
LAKE SUPERIOR

STATION/POSITION TIME  TEMP    WIND        PRES    WAVE
                       AIR SEA DIR/SP/G            HT/PER
                 (UTC) (F)     (DEG/KT/KT) (MB)    (FT/S)
DEVILS ISLAND    1600   41     250/  3/  4 1029.3F
SAXON HARBOR     1540   38      CALM  /  2 1028.1F
$$

LMZ867-665-643>646-221700-
LAKE MICHIGAN

STATION/POSITION TIME  TEMP    WIND        PRES    WAVE
                       AIR SEA DIR/SP/G            HT/PER
                 (UTC) (F)     (DEG/KT/KT) (MB)    (FT/S)
NORTHPORT PIER   1540   38                 1030.1R
KEWAUNEE LAKESHO 1542   43     130/  2/  3 1029.4R
SHEBOYGAN LAKESH 1600   39      20/  4/  4 1030.2F
PORT WASHINGTON  1530   44      50/  5/  8 1030.8S
MILWAUKEE LAKESH 1550   40      30/  8/  9   N/A
KENOSHA   LAKESH 1600   40                 1029.1
$$

TC  - TEMPERATURE IN CELSIUS
VSB - VISIBILITY IN STATUTE MILES
WCI - WIND CHILL INDEX
HX  - HEAT INDEX





USA.gov is the U.S. government's official web portal to all federal, state and local government web resources and services.